Location: Chervonnoye
(48.6000°N, 34.4000°E)
Time: 06:01:32
(UTC+00:00)

ERS-2 - Pass Details

Date: 23 November 2020
Orbit: 492 x 498 km, 98.6° (Epoch: 18 January)

Event Time Altitude Azimuth Distance (km) Brightness Sun altitude
Exits shadow 16:17:23 18° 349° (N) 1,276 4.2 -23.1°
Maximum altitude 16:19:36 36° 292° (WNW) 802 3.6 -23.5°
Drops below altitude 10° 16:22:59 10° 224° (SW) 1,700 5.4 -24.1°
Sets 16:25:08 0° 216° (SW) 2,579 6.3 -24.4°
